Weather History for Greenville, AL

Change the Weather History Date:

Monday, February 27, 2012

  Actual Average Record
Temperature  
Mean Temperature 58 °F -  
Max Temperature 66 °F 64 °F 86 °F (1962)
Min Temperature 50 °F 41 °F 20 °F (1963)
Degree Days  
Heating Degree Days 7    
Growing Degree Days 8 (Base 50)    
Moisture  
Dew Point 52 °F    
Average Humidity 82    
Maximum Humidity 96    
Minimum Humidity 66    
Precipitation  
Precipitation 0.00 in - - ()
Sea Level Pressure  
Sea Level Pressure 30.32 in    
Wind  
Wind Speed 5 mph (NE)    
Max Wind Speed 8 mph    
Max Gust Speed -    
Visibility 10 miles    
Events Rain    
Averages and records for this station are not official NWS values.
T = Trace of Precipitation, MM = Missing Value Source: NWS Daily Summary

Daily Weather History Graph

Daily Weather History Graph

Search for Another Location

Airport:

Trip Planner

Search our weather history database for the weather conditions in past years. The results will help you decide how hot, cold, wet, or windy it might be!

Date:

Astronomy

Feb. 27, 2012 Rise Set
Actual Time 6:16 AM CST 5:42 PM CST
Civil Twilight 5:51 AM CST 6:06 PM CST
Nautical Twilight 5:23 AM CST 6:35 PM CST
Astronomical Twilight 4:55 AM CST 7:03 PM CST
Moon 9:09 AM CST (2/27) 11:10 PM CST (2/27)
Length of Visible Light 12h 15m
Length of Day
11h 25m
Waxing Crescent, 29% of the Moon is Illuminated
Feb 27
Waxing Crescent
Feb 29
First Quarter
Mar 8
Full
Mar 14
Last Quarter
Mar 22
New

Hourly Weather History & Observations

Time (CST) Temp. Dew Point Humidity Pressure Visibility Wind Dir Wind Speed Gust Speed Precip Events Conditions
12:56 AM 50.0 °F 46.9 °F 89% 30.29 in 10.0 mi East 5.8 mph - N/A   Overcast
1:14 AM 50.0 °F 46.9 °F 89% 30.29 in 10.0 mi East 6.9 mph - N/A   Overcast
1:56 AM 50.0 °F 48.0 °F 93% 30.29 in 10.0 mi East 3.5 mph - N/A   Overcast
2:56 AM 50.0 °F 48.0 °F 93% 30.29 in 10.0 mi East 5.8 mph - 0.00 in Rain Light Rain
3:56 AM 50.0 °F 48.9 °F 96% 30.29 in 10.0 mi ENE 4.6 mph - 0.00 in Rain Light Rain
4:56 AM 50.0 °F 48.9 °F 96% 30.31 in 7.0 mi ENE 4.6 mph - 0.00 in   Overcast
5:56 AM 50.0 °F 48.9 °F 96% 30.32 in 8.0 mi NE 5.8 mph - 0.00 in   Overcast
6:56 AM 51.1 °F 50.0 °F 96% 30.34 in 10.0 mi Calm Calm - N/A   Overcast
7:48 AM 52.0 °F 50.0 °F 93% 30.34 in 9.0 mi ENE 3.5 mph - 0.00 in   Overcast
7:56 AM 52.0 °F 50.0 °F 93% 30.35 in 10.0 mi NNE 5.8 mph - 0.00 in   Overcast
8:03 AM 52.0 °F 50.0 °F 93% 30.35 in 10.0 mi NE 4.6 mph - N/A   Overcast
8:10 AM 52.0 °F 50.0 °F 93% 30.36 in 10.0 mi NE 3.5 mph - N/A   Overcast
8:56 AM 54.0 °F 51.1 °F 90% 30.36 in 10.0 mi ENE 3.5 mph - N/A   Overcast
9:32 AM 55.0 °F 51.1 °F 86% 30.37 in 10.0 mi NNE 5.8 mph - N/A   Overcast
9:56 AM 55.9 °F 52.0 °F 87% 30.37 in 10.0 mi NE 6.9 mph - N/A   Overcast
10:56 AM 57.0 °F 52.0 °F 83% 30.37 in 10.0 mi NNE 5.8 mph - N/A   Overcast
11:56 AM 61.0 °F 53.1 °F 75% 30.34 in 10.0 mi ENE 5.8 mph - 0.00 in   Mostly Cloudy
12:35 PM 63.0 °F 54.0 °F 72% 30.33 in 10.0 mi NNE 8.1 mph - N/A   Mostly Cloudy
12:54 PM 63.0 °F 54.0 °F 72% 30.33 in 10.0 mi Variable 4.6 mph - N/A   Overcast
12:56 PM 63.0 °F 54.0 °F 72% 30.32 in 10.0 mi North 3.5 mph - N/A   Overcast
1:10 PM 64.0 °F 55.0 °F 73% 30.31 in 10.0 mi ENE 6.9 mph - N/A   Mostly Cloudy
1:21 PM 64.9 °F 55.0 °F 70% 30.31 in 10.0 mi NNE 8.1 mph - N/A   Scattered Clouds
1:56 PM 66.9 °F 55.0 °F 66% 30.28 in 10.0 mi NNE 8.1 mph - N/A   Mostly Cloudy
2:56 PM 66.9 °F 55.0 °F 66% 30.29 in 10.0 mi NNE 4.6 mph - N/A   Overcast
3:56 PM 66.9 °F 55.0 °F 66% 30.29 in 10.0 mi NNE 5.8 mph - N/A   Scattered Clouds
4:56 PM 66.9 °F 55.0 °F 66% 30.29 in 10.0 mi NE 5.8 mph - N/A   Clear
5:56 PM 64.0 °F 55.0 °F 73% 30.29 in 10.0 mi NE 5.8 mph - N/A   Clear
6:56 PM 63.0 °F 55.0 °F 75% 30.30 in 10.0 mi Calm Calm - N/A   Partly Cloudy
7:56 PM 61.0 °F 55.0 °F 81% 30.29 in 10.0 mi Calm Calm - N/A   Clear
8:56 PM 61.0 °F 55.0 °F 81% 30.30 in 10.0 mi NE 3.5 mph - N/A   Clear
9:56 PM 61.0 °F 55.0 °F 81% 30.32 in 10.0 mi Calm Calm - N/A   Scattered Clouds
10:56 PM 61.0 °F 55.0 °F 81% 30.31 in 10.0 mi East 4.6 mph - N/A   Clear
11:56 PM 61.0 °F 55.9 °F 83% 30.30 in 10.0 mi East 4.6 mph - 0.00 in Rain Light Rain